This demonstration page uses our WeatherBlox Daily Observations layout. Learn more.

Left ArrowRight Arrow

39.01783, -85.05884

Hourly Observations for January 1, 2020

Temp ( °F °C ) Dew Point ( °F °C ) Humidity (%) Winds ( mph kmh ) Pressure ( in mb ) Visibility ( mi km ) Precip ( " mm )
12:52 am 00:52 Cloudy 34 1.1 25 -3.9 70 70 W 12 19 29.91 1013 10 16 0.00 0.00
1:52 am 01:52 Cloudy 34 1.1 25 -3.9 70 70 W 9 15 29.91 1013 10 16 0.00 0.00
2:52 am 02:52 Cloudy 35 1.7 25 -3.9 67 67 W 8 13 29.92 1013 10 16 0.00 0.00
3:52 am 03:52 Cloudy 35 1.7 26 -3.3 70 70 WSW 7 11 29.92 1013 10 16 0.00 0.00
4:52 am 04:52 Cloudy 35 1.7 27 -2.8 72 72 WSW 7 11 29.92 1013 10 16 0.00 0.00
5:52 am 05:52 Cloudy 35 1.7 27 -2.8 72 72 WSW 7 11 29.92 1013 10 16 0.00 0.00
6:52 am 06:52 Cloudy 35 1.7 27 -2.8 72 72 WSW 8 13 29.93 1013 10 16 0.00 0.00
7:52 am 07:52 Cloudy 35 1.7 26 -3.3 70 70 WSW 7 11 29.94 1014 10 16 0.00 0.00
8:52 am 08:52 Cloudy 35 1.7 27 -2.8 72 72 SW 8 13 29.95 1014 10 16 0.00 0.00
9:34 am 09:34 Partly Cloudy 36 2.2 28 -2.2 73 73 SW 8 13 29.99 1016 10 16 0.00 0.00
9:52 am 09:52 Mostly Sunny 37 2.8 28 -2.2 70 70 WSW 14 22 29.97 1015 10 16 0.00 0.00
10:52 am 10:52 Partly Cloudy 40 4.4 29 -1.7 65 65 SW 12 19 29.97 1015 10 16 0.00 0.00
11:52 am 11:52 Partly Cloudy 41 5 28 -2.2 60 60 WSW 15 24 29.96 1014 10 16 0.00 0.00
12:52 pm 12:52 Mostly Sunny 44 6.7 29 -1.7 55 55 WSW 12 19 29.92 1013 10 16 0.00 0.00
1:52 pm 13:52 Sunny 46 7.8 28 -2.2 50 50 VRB 7 11 29.89 1012 10 16 0.00 0.00
2:52 pm 14:52 Sunny 47 8.3 27 -2.8 46 46 SSW 10 17 29.88 1012 10 16 0.00 0.00
3:52 pm 15:52 Sunny 47 8.3 26 -3.3 44 44 SSW 14 22 29.88 1012 10 16 0.00 0.00
4:52 pm 16:52 Sunny 46 7.8 22 -5.6 38 38 SW 10 17 29.88 1012 10 16 0.00 0.00
5:52 pm 17:52 Clear 41 5 22 -5.6 47 47 SSW 8 13 29.88 1012 10 16 0.00 0.00
6:52 pm 18:52 Clear 39 3.9 24 -4.4 55 55 S 9 15 29.88 1012 10 16 0.00 0.00
7:52 pm 19:52 Clear 38 3.3 24 -4.4 57 57 S 10 17 29.87 1012 10 16 0.00 0.00
8:52 pm 20:52 Clear 36 2.2 23 -5 59 59 S 10 17 29.85 1011 10 16 0.00 0.00
9:52 pm 21:52 Mostly Clear 38 3.3 22 -5.6 52 52 S 10 17 29.86 1011 10 16 0.00 0.00
10:52 pm 22:52 Clear 39 3.9 22 -5.6 50 50 S 12 19 29.85 1011 10 16 0.00 0.00
11:52 pm 23:52 Partly Cloudy 37 2.8 23 -5 57 57 SSW 12 19 29.84 1011 10 16 0.00 0.00

Powered by AerisWeather